CZ-6A DEB

Satellite information

Favourite Embed

Satellite Type and Status

DEBRISIN ORBIT

Key statistics

Satellite CZ-6A DEB at a glance.

Uptime

1029

Days in orbit

Revolutions

≈ 14.1

Per day

Orbit

SSO

Sun Synchronous Orbit

Inclination

98.8

Latest

Satellite identification and parameters

Extended collection of information and parameters for CZ-6A DEB.

Object identification

Identified? True

Debris? True

Object name: CZ-6A DEB

International designator: 2022-151CH

Object number (NORAD): 54338

Object ID (CCSDS): 54338

Country: PEOPLES REPUBLIC OF CHINA (PRC)

Current information (Y/N): Y

RCS size: SMALL

Orbital parameters

Period: 101.862 minutes

Inclination: 98.8373 deg

SMA: 7224.959 km

Apoapsis: 876.682 km

Periapsis: 816.967 km

RAAN: 251.8096 deg

Eccentricy: 0.0041325

Argument of periapsis: 60.4824 deg

Mean anomaly: 300.046 deg

Mean motion: 14.13675214 rev/day

Mean motion (dot): 0.00002367 rev/day2

B* drag term: 0.0012659695 1/REarth

Two-line elements (TLE)

Creation date: Sept. 4, 2025, 10:13 a.m.

Reference frame: TEME

Reference center: EARTH

Epoch: Sept. 4, 2025, 12:24 a.m. UTC

TLE line 0: 0 CZ-6A DEB

TLE line 1: 1 54338U 22151CH 25247.01736103 .00002367 00000-0 12660-2 0 9990

TLE line 2: 2 54338 98.8373 251.8096 0041325 60.4824 300.0460 14.13675214144346

Live tracking on map

Real-time ground track for satellite CZ-6A DEB.

In-orbit conjunctions

A list of the most updated potential collisions computed for object CZ-6A DEB.

Target Orbit TCA Probability of collision Miss distance Type
NOAA 9 SSO 2025-05-06 01:32:29 0.001074915 814.0 (m) PAYLOAD
COSMOS 1275 DEB LEO 2024-11-08 13:48:36 0.0001174849 269.0 (m) DEBRIS

Associated space launch

Chinese satellite reported for atmospheric/ocean/environmental/spatial parameter research purposes, details TBD.

CZ-6A DEB was lifted into orbit during the mission ‘Long March 6A | Yunhai 3’, on board a Long March 6A space rocket.

The launch took place on Nov. 11, 2022, 10:52 p.m. from Launch Complex 9A.

For more information about the launch, click the button.

Launch to space Long March 6A | Yunhai 3
Long March 6A | Yunhai 3

Agency: N/A

Status: Launch Successful

Launch date: Nov. 11, 2022, 10:52 p.m. UTC

Rocket: Long March 6A

Launch pad: Launch Complex 9A

Location: Taiyuan Satellite Launch Center, People's Republic of China

...

Latest news about this satellite

There are no fresh news available about this satellite. Check back as we update our databases every day.


Newsletter sign-up

Weekly statistics, charts and insights to help you stay on top of the space industry.